Location: Cheyres
(46.8153°N, 6.7877°E)
Time: 11:53:30
(UTC+00:00)

Gbstr 26 Del rocket - Pass Details

Date: 20 September 2021
Orbit: 492 x 1263 km, 51.8° (Epoch: 18 October)

Event Time Altitude Azimuth Distance (km) Brightness Sun altitude
Exits shadow 03:13:32 15° 296° (WNW) 2,790 6.0 -21.2°
Maximum altitude 03:20:16 85° 25° (NNE) 1,146 4.3 -20.2°
Drops below altitude 10° 03:27:07 10° 114° (ESE) 2,771 6.9 -19.1°
Sets 03:29:31 0° 115° (ESE) 3,611 7.6 -18.7°
